Flag for USA

Past Weather in Charleston, West Virginia, USA — Yesterday and Last 2 Weeks

Now
67 °F

Clear.


Feels Like: 67 °F
Forecast: 95 / 63 °F
Wind: 3 mph from Northeast

Location: Yeager Airport

Current Time: Jul 15, 2020 at 2:29:07 am

Latest Report: Jul 15, 2020 at 1:54 am


Visibility: 10 mi

Pressure: 30.07 "Hg

Humidity: 87%

Dew Point: 63 °F

Location of CharlestonLocation

Past Weather in Charleston — Graph

°F

Charleston Temperature Yesterday

Maximum temperature yesterday: 87 °F (at 4:54 pm)
Minimum temperature yesterday: 64 °F (at 4:54 am)
Average temperature yesterday: 75 °F

High & Low Weather Summary for the Past Weeks

 TemperatureHumidityPressure
High95 °F (Jul 6, 3:54 pm)97% (Jun 30, 4:54 am)30.07 "Hg (Jun 30, 4:54 am)
Low63 °F (Jul 13, 5:33 am)32% (Jul 5, 5:54 pm)29.77 "Hg (Jul 12, 5:54 pm)
Average77 °F70%29.93 "Hg
* Reported Jun 30 12:09 am — Jul 15 12:54 am, Charleston. Weather by CustomWeather, © 2020

Note: Actual official high and low records may vary slightly from our data, if they occured in-between our weather recording intervals... More about our weather records

Charleston Weather History for the Previous 24 Hours

Scroll right to see more
 ConditionsComfort  
Time TempWeatherWind HumidityBarometerVisibility
12:54 am
Wed, Jul 15
67 °FClear.3 mph90%30.07 "Hg10 mi
11:54 pm
Tue, Jul 14
69 °FPassing clouds.No wind87%30.07 "Hg10 mi
10:54 pm70 °FPassing clouds.No wind87%30.06 "Hg10 mi
9:54 pm74 °FPassing clouds.No wind76%30.06 "Hg10 mi
8:54 pm79 °FPassing clouds.No wind62%30.05 "Hg10 mi
7:54 pm82 °FPassing clouds.3 mph55%30.03 "Hg10 mi
6:54 pm85 °FScattered clouds.3 mph42%30.02 "Hg10 mi
5:54 pm86 °FScattered clouds.No wind39%30.03 "Hg10 mi
4:54 pm87 °FScattered clouds.No wind39%30.03 "Hg10 mi
3:54 pm86 °FScattered clouds.3 mph40%30.02 "Hg10 mi
2:54 pm86 °FScattered clouds.3 mph42%30.02 "Hg10 mi
1:54 pm82 °FPartly sunny.3 mph48%30.03 "Hg10 mi
12:54 pm82 °FPartly sunny.3 mph51%30.03 "Hg10 mi
11:54 am83 °FScattered clouds.3 mph53%30.04 "Hg10 mi
10:54 am79 °FPassing clouds.No wind62%30.05 "Hg10 mi
9:54 am74 °FSunny.No wind74%30.06 "Hg10 mi
9:01 am67 °FFog.No wind90%30.07 "Hg4 mi
7:54 am65 °FFog.No wind94%30.03 "Hg1 mi
6:54 am64 °FFog.No wind97%30.01 "Hg1 mi
5:54 am64 °FFog.No wind94%29.98 "Hg1 mi
4:54 am64 °FFog.No wind97%29.97 "Hg6 mi
4:32 am65 °FFog.No wind94%30.00 "Hg6 mi
3:54 am66 °FClear.No wind93%29.97 "Hg8 mi
2:54 am67 °FClear.No wind90%29.96 "Hg10 mi
Weather by CustomWeather, © 2020

See weather overview